Location: Plainartige
(45.6866°N, 1.7993°E)
Time: 05:05:38
(UTC+00:00)

Vanguard 1 - Pass Details

Date: 24 May 2022
Orbit: 649 x 3833 km, 34.2° (Epoch: 06 July)

Event Time Altitude Azimuth Distance (km) Brightness Sun altitude
Exits shadow 02:08:24 18° 227° (SW) 4,706 12.9 -16.5°
Maximum altitude 02:21:46 54° 161° (SSE) 3,914 12.8 -15.1°
Drops below altitude 10° 02:43:57 10° 93° (E) 6,911 14.9 -12.7°
Sets 02:49:19 0° 90° (E) 7,825 15.3 -12.1°
